Location: ???????
(55.5931°N, 39.3286°E)
Time: 08:41:56
(UTC+00:00)

Cosmos 1666 Rocket - Pass Details

Date: 14 April 2024
Orbit: 600 x 630 km, 82.5° (Epoch: 19 May)

Event Time Altitude Azimuth Distance (km) Brightness Sun altitude
Rises 01:28:07 0° 344° (NNW) 2,938 7.2 -7.5°
Reaches altitude 10° 01:30:27 10° 337° (NNW) 2,024 6.3 -7.2°
Maximum altitude 01:34:41 42° 267° (W) 900 4.0 -6.7°
Drops below altitude 10° 01:38:52 10° 197° (SSW) 2,000 5.8 -6.2°
Sets 01:41:09 0° 190° (S) 2,898 6.6 -5.9°
